RH
28 35 38 37 31 24 20 19 19 20 18 17 20 22 24 24 21 16 14 16 17 20 21 19 19 17 15 15 13 12 12 12 12 12 12 12 12 12 11 14 15 15 23 25 20 18 17 19 20 19 19 21 22 22 24 25 25 26 27 26 26 26 25 25 27 28 26 27 29 29 28 28 30 31 32 33 31 33 32 25 16 11 11 11 11 11
33 39 38 29 22 18 17 15 15 18 17 17 22 24 24 25 23 17 15 16 15 20 21 18 19 18 16 15 13 13 12 12 12 11 12 11 11 12 12 15 18 23 32 31 26 24 21 20 21 19 19 21 21 21 24 25 25 26 27 26 25 26 26 24 24 25 24 23 22 22 23 25 28 28 26 25 28 30 30 26 16 9 10 11 11 11
42 41 32 23 19 17 15 15 16 18 19 21 24 27 28 25 24 20 16 16 16 20 23 20 20 20 16 15 14 14 13 12 12 11 12 12 12 12 12 16 24 31 34 29 28 29 26 24 22 19 20 21 21 21 23 25 24 25 26 25 24 25 25 25 23 22 21 20 18 18 21 22 24 28 25 20 23 27 28 25 14 10 11 11 11 11
42 36 26 21 19 17 15 15 18 19 21 25 26 28 29 26 28 27 19 18 18 19 22 23 24 23 19 18 17 15 15 14 13 13 14 15 15 14 15 19 26 32 31 28 29 30 29 29 25 21 22 21 21 21 22 24 24 24 25 24 24 23 23 24 24 21 19 20 21 20 22 23 23 29 30 27 29 30 27 20 12 11 13 12 12 11
30 24 22 22 19 19 20 20 23 24 23 27 30 30 27 25 26 25 21 22 22 21 24 27 29 27 23 23 21 17 16 16 15 14 14 16 17 18 20 24 28 31 31 29 29 30 31 31 26 23 23 22 22 22 22 23 24 24 25 24 23 23 23 24 24 22 20 21 24 25 28 30 30 32 35 36 38 35 25 16 12 12 13 14 13 11
24 19 21 24 24 26 27 26 28 31 26 25 31 30 25 24 24 27 30 33 35 33 30 32 33 27 22 22 19 17 18 17 16 16 15 14 16 17 20 27 32 33 33 30 28 30 31 31 28 24 23 24 23 22 21 22 23 23 24 25 24 23 23 23 22 21 20 21 24 26 30 34 35 36 37 34 35 31 21 13 14 17 18 16 12 10
21 20 21 25 28 32 36 33 30 33 29 27 39 45 36 29 32 38 39 40 44 40 31 34 39 32 22 18 16 15 18 18 17 18 17 15 16 15 16 24 32 34 34 32 29 30 32 31 30 27 25 25 25 23 21 22 22 23 24 24 24 23 21 21 21 20 20 22 23 24 27 29 30 32 33 28 24 20 13 13 19 24 25 19 12 9
19 24 28 31 34 36 39 35 30 32 30 33 48 55 42 33 38 41 40 44 46 38 33 35 38 37 29 21 17 15 16 18 17 17 18 18 16 14 12 18 30 33 32 33 32 30 31 32 30 28 26 25 25 24 22 22 22 22 23 24 23 22 21 20 20 20 21 22 24 25 25 26 25 25 25 21 18 16 16 21 26 28 28 21 12 10
30 35 35 36 40 40 35 34 40 38 31 40 50 47 39 36 38 37 39 45 42 38 43 43 38 37 31 21 18 17 17 17 15 14 15 15 14 14 11 13 27 33 30 31 33 30 30 31 30 27 26 25 25 24 22 22 22 21 22 23 23 23 22 20 20 21 22 22 23 24 24 25 23 21 19 18 20 24 26 29 32 31 29 23 17 13
36 39 36 38 42 39 34 41 55 47 35 47 53 42 40 40 36 37 39 41 41 42 45 45 40 37 28 20 21 23 20 19 17 13 12 12 11 14 12 11 23 34 34 33 31 29 29 29 28 27 26 26 24 24 23 22 22 21 21 23 24 23 22 22 21 22 24 23 22 22 22 22 21 19 20 21 24 29 30 31 32 31 28 25 22 18
32 33 37 42 39 35 40 47 54 52 42 47 48 38 43 47 40 41 40 37 44 45 39 37 37 36 32 28 25 25 22 19 16 12 11 11 10 12 13 14 23 34 37 36 33 30 29 27 26 26 26 26 25 24 24 23 22 22 22 23 23 23 23 23 23 23 24 23 22 21 19 19 19 20 23 26 27 29 29 29 29 29 26 25 24 22
34 37 38 44 40 35 44 48 45 48 47 46 42 35 42 47 43 45 42 41 48 41 30 32 34 35 37 32 23 19 19 16 14 13 11 11 11 12 14 17 25 33 36 37 35 33 31 29 27 27 26 26 25 26 25 24 23 22 23 23 24 24 24 25 25 24 24 23 21 21 19 19 20 22 25 27 28 28 26 25 26 28 27 27 28 28
43 41 35 42 46 39 41 45 44 45 47 49 45 38 42 44 44 49 51 54 55 41 29 31 35 37 33 26 19 15 14 15 14 13 11 12 12 12 19 25 29 35 36 36 37 35 33 31 30 28 27 26 26 27 27 26 25 24 24 24 24 25 25 26 28 26 25 23 22 22 22 21 22 24 26 26 26 26 24 23 25 27 27 28 30 30
51 45 41 44 44 40 36 35 41 45 46 47 45 45 50 46 41 45 50 51 46 38 32 31 37 40 30 22 21 15 11 13 13 10 12 15 11 13 27 34 34 38 38 37 38 37 34 32 30 29 26 26 27 27 27 28 27 26 25 25 26 26 26 28 29 29 27 25 23 24 23 23 24 24 25 25 24 24 23 21 22 23 23 24 25 25
44 39 44 46 41 42 37 27 30 38 44 42 37 39 45 43 35 32 36 36 32 35 33 30 38 39 27 21 21 17 13 13 12 10 14 17 13 22 38 38 35 38 40 39 38 36 35 31 29 29 26 26 27 27 28 29 29 28 27 27 27 27 27 29 30 30 29 27 25 25 25 24 24 24 24 24 22 21 21 20 20 22 21 20 22 24
35 30 37 43 42 43 37 29 27 33 45 43 34 35 39 38 32 28 33 31 30 40 36 30 38 32 18 15 15 14 14 14 13 12 14 14 14 29 42 39 39 40 39 41 40 37 36 33 31 30 27 26 27 27 29 30 31 30 28 28 27 27 28 29 31 31 30 28 27 27 27 26 26 27 26 24 23 22 19 19 19 21 21 20 23 26
35 37 44 44 41 42 38 35 32 31 39 42 40 42 39 36 34 34 39 33 32 42 34 26 33 26 17 17 14 12 13 12 13 13 13 12 12 24 34 37 41 41 39 42 41 38 37 35 34 31 26 26 27 28 30 30 31 31 29 30 29 28 29 30 31 31 31 30 30 28 28 28 28 28 27 26 25 23 21 20 20 21 21 22 24 25
29 32 47 48 39 43 43 41 40 36 35 40 45 43 39 42 42 37 39 38 38 43 34 26 30 27 24 25 19 15 15 12 12 13 12 12 13 19 27 33 38 38 39 41 42 42 40 37 37 32 27 26 26 27 29 29 31 31 31 31 31 30 29 30 31 32 32 32 31 31 30 29 29 29 28 27 25 24 23 23 23 22 22 22 21 20
31 27 41 54 51 45 42 40 42 41 37 40 45 42 42 49 50 42 40 41 40 39 34 30 31 28 25 24 19 17 18 15 13 13 13 12 14 19 25 31 35 38 40 40 41 43 41 38 38 34 29 25 24 26 27 28 31 33 33 32 32 31 29 31 33 33 34 34 33 33 31 31 31 30 30 28 25 24 24 24 23 22 20 20 18 17
35 30 34 55 60 45 40 43 44 43 41 41 42 42 42 42 46 48 41 34 33 34 34 33 33 30 24 19 16 15 17 16 13 14 14 13 15 20 24 29 36 41 41 38 39 41 39 38 37 33 29 26 24 24 25 27 31 33 34 34 33 32 31 32 35 35 36 35 35 35 34 33 32 32 31 29 26 25 25 24 23 21 19 18 17 17
34 33 30 50 60 46 42 46 43 39 40 42 43 43 40 35 39 46 40 31 32 34 35 36 36 29 20 15 13 14 15 16 14 15 18 18 17 20 24 28 34 41 42 40 39 38 38 39 38 34 29 26 24 24 25 27 31 34 35 36 34 33 33 34 36 37 37 37 36 36 36 35 35 34 32 30 28 26 26 25 23 20 18 17 18 19
37 37 33 44 54 46 39 36 33 31 32 37 40 38 37 36 36 42 40 34 35 35 32 36 39 29 18 13 13 13 14 16 18 19 22 23 21 23 27 29 32 37 40 42 40 38 38 38 37 34 30 27 26 26 27 28 32 36 38 37 36 34 34 36 37 38 38 38 39 38 38 38 38 36 34 32 31 29 27 27 24 21 19 19 21 22
33 37 38 40 40 35 33 35 38 36 30 34 37 33 33 34 34 38 38 32 35 36 32 35 41 31 16 13 15 15 15 18 20 19 21 23 22 25 31 32 33 36 40 44 42 39 39 36 34 33 31 30 29 28 29 29 33 38 39 39 38 36 37 37 38 39 39 40 40 40 41 41 40 39 36 34 34 32 30 28 26 23 21 22 24 25
35 37 39 39 36 31 32 37 44 44 36 36 39 36 35 34 32 35 34 29 32 37 34 37 43 34 18 15 17 16 18 20 19 17 19 23 23 27 32 33 35 37 39 43 44 41 40 36 33 33 33 33 31 29 30 30 33 37 38 39 39 37 38 39 40 40 40 41 42 42 43 43 42 41 39 37 37 35 34 31 28 26 25 26 28 28
40 42 39 42 46 44 42 38 39 44 42 39 38 37 38 37 37 40 37 33 37 37 33 37 41 32 20 19 20 18 18 17 17 17 18 21 23 27 31 32 35 36 34 38 43 40 38 36 33 32 33 33 31 30 30 30 33 36 38 39 39 38 39 40 41 42 42 42 43 43 44 44 43 43 41 41 40 38 36 33 31 30 29 30 31 31
41 48 48 53 59 58 56 49 41 43 44 41 39 37 37 39 43 44 41 42 44 39 34 38 39 29 20 20 20 19 17 16 15 16 17 19 20 24 31 33 33 34 34 38 40 35 31 33 33 31 32 32 30 29 29 30 33 36 38 39 38 38 39 40 41 42 43 43 43 44 44 44 44 44 43 43 42 41 39 36 33 32 33 33 32 34
52 60 60 65 68 62 58 51 42 41 41 40 42 42 40 41 43 46 47 48 44 41 41 40 37 34 29 24 22 20 18 18 17 16 17 18 19 25 35 39 36 34 36 37 38 34 29 30 32 31 32 32 29 28 28 30 33 36 38 39 38 38 39 41 42 43 44 44 44 44 43 43 44 44 44 44 44 44 42 40 37 34 35 35 34 34
64 74 71 74 76 68 60 52 45 46 46 44 45 45 42 42 45 50 51 44 38 44 47 38 33 40 36 27 24 22 19 19 19 18 19 18 18 22 33 41 41 39 39 37 35 34 30 28 30 30 30 31 30 28 27 28 31 34 37 38 39 39 39 41 42 43 44 44 44 44 44 44 44 44 44 45 45 46 44 42 40 37 37 37 35 35
68 82 80 82 83 75 68 62 55 55 55 50 48 47 42 41 45 50 49 41 38 44 45 35 34 39 34 26 25 23 20 21 20 19 19 19 19 20 24 33 39 42 41 38 36 35 31 29 29 28 28 30 30 29 27 28 30 33 36 38 39 40 40 41 43 44 44 44 43 43 43 44 44 44 45 46 47 47 46 44 43 41 39 37 37 39
72 83 82 84 88 82 76 73 67 64 63 58 55 52 47 45 45 46 45 42 42 44 40 35 37 37 30 26 24 21 21 21 20 19 20 20 21 21 20 25 33 39 41 39 37 36 34 33 30 28 28 29 30 29 28 28 30 32 35 37 39 40 41 42 43 43 44 44 43 42 43 44 44 45 46 47 48 49 48 47 45 42 41 40 41 42
75 81 80 83 90 87 78 76 74 72 70 66 62 58 54 52 50 49 48 45 47 48 42 40 45 41 31 25 24 22 22 22 21 21 21 20 21 23 22 24 30 35 36 35 35 35 35 35 33 31 30 30 29 29 28 27 29 32 34 36 38 40 40 41 42 43 43 43 42 42 43 43 45 47 48 50 51 51 50 48 45 43 43 44 44 42
77 80 80 86 97 91 78 77 79 76 76 78 75 69 63 60 57 53 52 49 49 50 48 48 51 45 32 26 27 26 24 24 25 24 23 23 23 24 24 27 31 32 30 30 31 32 33 33 33 33 32 31 29 29 27 27 30 32 34 36 38 39 40 40 41 41 42 42 42 42 43 44 46 49 51 53 53 53 51 48 46 45 45 45 43 44
79 82 84 91 100 91 77 79 81 81 90 94 83 70 64 61 58 55 53 50 47 48 53 54 48 39 31 29 30 29 27 28 27 25 25 25 24 25 26 28 32 32 29 29 30 31 32 32 31 32 32 32 30 28 26 27 30 32 33 35 37 38 39 40 40 41 41 42 42 43 44 46 49 52 55 56 56 55 52 50 49 47 45 44 44 46
84 88 89 89 95 91 77 76 85 92 98 89 70 61 59 57 57 58 56 51 45 43 45 44 38 33 31 31 31 30 28 27 26 25 27 28 26 26 27 29 31 31 29 29 30 32 35 35 34 34 32 30 28 26 25 26 28 31 33 35 37 38 39 40 41 41 42 42 43 45 46 49 53 57 60 61 59 57 53 51 51 49 45 44 47 50
87 93 93 88 92 91 79 82 97 97 84 70 58 52 51 49 49 53 54 49 43 41 41 40 38 35 33 32 30 29 27 25 24 24 27 30 28 26 26 28 29 30 30 30 31 32 34 36 37 38 36 30 26 25 26 28 29 31 34 36 38 39 41 42 43 43 44 45 46 48 50 53 58 62 65 64 60 57 55 52 50 49 47 46 47 49
86 90 93 91 92 90 87 95 99 80 64 64 60 49 49 53 54 58 63 55 44 42 42 41 39 35 33 33 31 29 28 26 26 27 27 27 27 27 27 28 29 29 28 28 29 30 33 35 37 38 34 28 26 26 27 28 30 33 37 38 40 42 43 44 46 46 47 48 50 52 53 56 62 66 65 62 58 55 53 50 46 45 46 48 49 50
82 86 90 93 91 89 93 94 84 71 70 72 64 53 50 52 51 56 64 56 42 39 42 41 40 37 34 34 33 31 30 30 32 32 28 26 28 29 29 30 31 30 28 28 30 31 32 32 32 32 29 26 26 27 27 30 32 36 42 45 45 47 48 49 51 51 51 53 53 54 56 58 61 63 60 55 52 49 45 43 43 44 44 46 50 52
79 83 87 92 89 84 91 93 89 91 88 71 58 51 44 41 40 43 55 55 40 35 38 38 37 36 34 34 33 31 34 40 42 37 29 27 29 30 32 34 35 34 33 32 33 34 34 31 29 29 27 28 30 29 29 32 35 40 49 52 51 52 54 55 55 54 54 56 55 56 58 58 57 57 55 50 44 41 41 42 42 41 40 40 44 49
81 82 83 93 94 87 93 99 95 92 82 64 54 48 42 42 39 43 62 67 46 34 36 35 35 37 35 35 35 36 42 50 48 38 30 28 30 31 33 37 39 39 38 36 34 34 35 32 30 30 30 33 36 34 33 36 39 47 56 58 56 58 59 59 57 56 56 57 57 58 59 57 54 51 51 48 40 36 38 39 39 40 42 43 44 47
91 90 89 97 99 93 95 97 89 81 76 68 60 51 44 41 43 61 85 76 45 33 35 32 31 33 32 33 36 40 46 48 43 36 31 30 32 34 34 37 41 41 40 39 36 32 33 34 35 39 42 42 39 36 37 40 45 53 60 61 61 62 62 59 57 56 57 58 59 60 59 58 53 48 47 45 39 33 32 35 40 47 50 50 49 49
95 95 96 98 98 95 97 98 90 77 68 62 56 51 47 47 56 75 80 62 49 51 49 43 43 43 42 43 42 41 42 39 35 33 33 33 35 36 35 37 40 40 39 40 37 34 37 40 40 43 45 42 39 39 41 45 52 59 62 63 65 64 61 58 57 57 59 60 61 62 61 58 52 47 44 39 33 33 39 41 44 48 50 52 53 53
96 96 97 97 96 93 90 91 88 77 68 66 59 46 45 59 76 83 74 69 79 86 80 76 77 77 77 77 70 64 60 55 52 51 50 48 46 46 45 44 43 44 44 41 38 39 43 45 44 47 46 41 40 42 44 49 57 63 65 66 67 64 59 57 59 59 61 63 63 63 62 58 52 46 43 40 35 40 51 52 47 47 51 54 55 55
89 91 93 92 92 92 90 93 96 91 88 88 79 64 64 77 89 94 91 91 95 94 91 92 90 88 92 91 86 83 78 73 72 71 67 64 61 58 58 54 50 49 47 43 40 40 43 48 53 54 50 44 44 45 47 53 61 66 69 68 66 61 58 59 61 62 63 64 64 64 62 59 55 49 48 48 43 42 53 61 56 52 53 55 55 56
81 87 93 89 89 95 96 93 93 97 101 99 93 87 82 76 80 93 99 97 96 96 95 96 92 88 91 92 89 87 83 79 79 78 74 73 69 67 66 62 57 54 50 46 43 40 43 52 58 57 52 49 49 50 51 55 62 69 71 68 64 61 61 62 63 65 66 66 66 66 64 62 60 56 54 54 48 45 57 66 61 58 60 57 54 55
77 81 88 89 88 89 88 86 87 93 93 86 80 77 66 57 69 90 98 97 99 97 94 97 97 91 89 91 90 88 84 82 81 79 78 78 76 74 73 68 64 59 52 46 44 42 46 54 58 59 59 56 53 54 55 55 60 70 72 67 64 63 63 65 66 68 69 69 68 69 68 68 66 60 57 57 51 50 61 67 63 67 71 63 56 61
65 67 79 91 88 75 73 80 82 74 62 52 49 46 44 54 76 92 95 96 97 93 90 92 93 90 88 90 90 89 86 82 79 78 78 79 79 79 77 75 73 67 58 51 49 49 51 55 59 64 69 66 60 59 60 58 60 66 68 66 65 65 65 67 69 70 71 72 71 71 72 73 74 70 67 63 53 47 53 59 62 68 71 66 66 74
57 56 66 76 72 62 59 60 55 48 43 38 35 38 52 73 85 84 85 89 88 85 83 82 81 82 83 83 83 84 82 78 79 81 80 80 83 82 79 79 79 74 68 62 56 55 60 65 68 70 73 73 66 62 63 63 62 63 65 65 65 66 67 68 70 72 73 73 75 77 75 76 80 82 80 74 65 58 57 58 60 63 63 67 78 85
51 49 54 55 53 52 52 46 39 42 45 40 44 63 80 80 68 60 65 72 73 72 72 71 71 72 73 75 78 82 82 80 81 85 84 83 84 82 79 78 76 75 75 69 59 59 68 74 73 72 74 74 68 65 66 66 65 66 66 65 66 67 69 70 70 72 74 75 77 80 78 78 82 87 88 82 74 67 65 65 64 61 58 61 68 77
50 59 61 58 58 59 56 49 44 46 44 37 44 67 76 64 53 57 64 67 68 70 70 70 70 70 73 77 78 80 83 82 81 84 84 79 76 73 71 70 70 72 76 73 66 65 72 75 74 74 76 72 66 65 67 68 68 69 67 66 66 67 69 72 71 72 75 77 77 79 81 81 83 85 86 85 79 72 68 67 65 62 63 62 54 53
56 63 55 56 70 70 55 44 42 44 44 35 36 54 63 59 59 64 63 62 67 72 74 77 77 75 75 77 78 80 82 79 75 77 77 73 70 68 66 65 67 70 73 72 70 71 75 75 74 75 76 71 66 66 68 69 71 71 68 66 66 66 69 72 73 74 77 78 78 80 83 84 86 86 83 83 82 80 78 75 67 58 56 60 62 64
47 47 41 47 58 49 39 45 54 58 56 48 47 59 64 59 59 60 59 62 66 68 70 73 73 70 70 71 74 79 81 77 72 72 73 72 70 69 68 67 68 70 72 71 73 77 80 78 77 78 77 73 69 69 72 72 72 73 71 69 67 66 68 70 72 75 79 78 78 82 84 84 86 87 84 81 78 77 81 89 88 76 61 60 76 92
Wind_Speed
3 4 5 8 11 10 10 12 14 14 13 13 11 9 8 8 10 13 12 6 10 7 9 14 13 14 15 13 13 12 12 14 14 13 13 13 13 13 14 12 11 11 8 9 18 25 27 27 26 26 27 28 29 29 30 32 32 32 33 33 33 32 33 33 32 31 31 30 28 27 27 26 25 24 22 20 18 18 17 17 15 12 10 9 7 6
1 6 10 15 15 11 10 12 12 11 12 11 9 8 8 8 10 13 11 5 7 5 7 10 10 12 14 13 13 12 12 15 16 16 17 16 15 14 14 13 10 6 4 9 13 18 22 24 25 26 27 29 30 29 30 33 33 32 34 34 34 34 34 35 35 34 33 33 32 30 30 28 26 25 24 23 20 19 19 18 15 12 12 10 8 7
4 9 14 16 13 11 12 11 9 9 10 9 7 6 7 8 9 11 9 1 3 3 5 8 9 11 14 14 14 14 14 16 17 18 17 16 16 15 13 11 7 7 8 10 10 12 17 22 25 26 27 29 31 30 31 33 33 33 34 35 35 35 36 35 35 35 33 32 31 29 28 27 26 23 22 22 21 21 20 18 15 13 12 11 10 9
7 10 14 16 13 13 15 11 8 8 8 8 7 6 7 9 7 7 6 3 4 5 6 8 8 10 12 13 15 18 19 17 17 18 16 15 16 16 14 10 8 10 10 10 10 10 13 18 23 24 26 28 29 29 31 33 34 34 35 37 37 37 37 35 35 35 32 30 27 25 24 25 25 23 21 21 21 22 21 18 16 14 13 12 11 10
13 7 7 11 12 13 13 10 7 6 7 8 7 8 9 10 11 10 8 3 3 5 4 5 8 8 9 12 14 14 15 15 14 14 14 15 15 14 14 9 9 11 11 11 11 11 11 14 19 24 27 28 30 31 33 35 36 35 36 38 38 38 37 35 35 34 32 30 28 26 25 25 23 23 23 24 23 23 21 19 18 16 15 14 12 10
14 8 6 7 7 7 9 7 7 6 8 9 7 10 14 13 13 12 9 6 4 5 1 2 7 8 7 10 11 7 7 10 9 11 14 14 13 13 12 9 8 9 10 11 12 13 12 12 16 22 26 28 30 32 34 36 36 35 36 37 37 37 36 35 34 34 34 34 34 33 32 30 27 25 26 29 29 27 24 20 18 17 16 16 13 11
7 7 8 10 9 8 7 7 7 7 7 9 4 5 8 8 8 8 6 3 2 5 3 4 3 11 7 7 9 7 6 9 8 10 13 12 12 13 11 8 9 9 9 10 11 12 12 12 14 19 26 30 31 32 34 34 35 35 35 36 37 36 36 35 35 36 37 37 37 37 36 35 33 30 30 31 30 27 24 21 19 19 18 16 14 12
4 6 5 7 9 7 8 8 7 8 7 6 2 1 2 2 3 3 3 3 4 4 5 5 5 10 13 5 8 10 9 9 9 10 11 11 13 15 13 8 9 11 11 11 10 12 13 14 16 20 26 31 31 32 33 34 35 35 35 36 36 36 36 36 37 38 38 38 38 37 35 34 33 31 30 29 26 24 23 22 22 21 19 17 14 12
2 7 8 8 8 6 7 7 5 8 7 5 3 2 2 2 2 1 2 5 3 4 5 5 7 7 14 6 6 10 10 10 12 12 12 13 15 15 14 11 9 12 13 12 12 13 14 14 19 23 27 29 30 32 34 36 36 35 35 36 36 36 36 37 38 39 39 39 38 38 35 32 31 29 27 27 26 25 25 25 24 22 19 17 15 13
0 4 5 6 7 7 7 3 2 5 6 4 3 1 2 2 2 2 5 4 2 5 6 6 7 5 13 8 4 7 8 10 11 11 12 14 15 13 12 12 9 10 10 10 11 12 13 16 21 24 25 27 30 33 35 35 35 35 35 36 37 37 38 38 40 41 40 39 38 38 37 33 31 28 28 29 29 28 28 27 25 22 20 18 16 15
3 2 0 3 5 5 4 4 1 2 2 2 2 1 2 4 3 1 4 1 2 9 7 9 12 9 10 5 5 6 7 9 9 9 10 11 12 11 10 10 8 8 8 8 9 10 11 15 20 23 24 27 29 31 33 34 35 36 36 38 38 38 38 39 41 42 41 40 40 40 39 37 34 33 33 33 32 30 29 28 26 24 21 19 17 16
5 2 2 2 2 4 6 3 2 1 2 3 4 1 3 4 1 2 2 3 3 10 5 10 15 15 11 5 3 6 7 10 10 9 10 12 12 12 10 9 8 9 8 9 9 8 9 11 16 19 22 25 28 29 32 35 36 37 37 38 37 37 38 39 41 43 42 41 40 40 39 38 37 37 37 36 35 34 32 30 27 24 21 19 18 17
6 8 8 2 1 5 6 2 1 2 1 4 5 4 0 3 2 1 2 3 6 11 7 9 12 12 13 8 6 8 7 10 11 10 11 11 10 11 9 7 7 8 9 9 9 8 10 10 12 14 19 24 27 30 33 35 36 36 37 38 38 38 39 39 41 42 42 42 40 38 38 37 37 37 37 36 36 35 34 32 29 26 24 22 21 20
4 6 8 4 3 6 9 6 4 2 4 8 6 6 6 4 4 4 4 4 7 9 8 8 8 5 7 6 10 14 15 14 12 11 12 9 10 11 7 7 7 8 9 9 9 9 10 11 11 13 18 23 26 30 33 34 36 36 36 38 38 38 39 39 40 41 41 41 40 38 38 37 37 37 37 36 35 35 34 32 30 28 27 26 24 22
5 7 6 10 4 8 13 14 12 5 6 10 7 6 7 5 4 5 5 7 8 7 6 4 5 4 4 4 11 15 16 15 11 12 11 9 10 7 6 7 7 8 8 7 9 10 10 12 12 13 18 23 26 30 32 34 35 35 36 38 39 38 39 40 40 40 41 41 40 38 38 38 38 38 37 36 35 35 34 32 31 29 28 26 24 21
7 9 8 12 4 11 17 16 12 5 1 6 5 5 8 7 6 6 7 9 6 5 7 4 4 7 7 8 10 10 11 11 11 12 10 9 10 5 7 7 7 7 7 8 8 9 10 11 11 14 19 23 27 30 32 34 35 36 37 38 40 40 39 40 40 40 40 40 39 39 38 39 38 37 37 36 35 35 34 33 32 30 28 26 24 22
6 7 6 8 1 7 13 10 10 8 3 3 5 6 7 4 6 6 8 7 3 5 9 7 6 8 8 11 12 14 16 12 10 10 10 12 12 8 7 7 7 8 8 8 9 10 11 11 12 16 21 24 27 30 33 36 38 39 39 39 39 38 37 39 40 40 39 39 39 39 40 40 40 39 39 38 37 36 34 33 32 30 29 27 26 24
7 6 4 9 5 5 4 2 5 7 3 5 4 7 2 2 1 3 3 3 3 7 8 8 11 10 9 10 5 5 12 12 10 10 11 13 12 7 7 8 8 9 8 9 9 9 10 11 12 16 22 26 29 30 33 36 37 39 39 39 38 38 38 40 41 40 40 40 40 41 41 41 41 41 40 39 39 37 36 34 32 31 30 29 27 25
6 7 5 4 2 1 1 1 5 5 2 5 3 3 2 1 3 3 2 3 5 7 6 9 13 12 11 10 5 2 8 11 10 9 9 11 9 6 8 8 6 7 7 7 8 8 9 11 11 15 20 24 27 28 30 32 34 35 36 37 37 38 38 39 39 39 40 41 41 41 42 42 42 41 41 40 39 38 38 37 35 34 32 30 28 26
4 6 6 2 3 1 2 2 6 4 2 2 2 4 0 2 4 4 3 4 5 7 7 8 10 12 11 7 6 10 12 10 8 8 8 9 7 7 8 7 5 7 7 8 9 9 11 11 13 18 23 26 28 30 30 32 33 34 34 35 36 37 37 37 39 39 40 41 41 40 40 41 41 41 41 40 40 39 39 38 37 36 34 31 29 27
2 4 6 2 4 1 2 4 9 9 7 5 2 4 2 1 1 1 2 3 5 7 6 6 8 13 10 2 3 6 9 11 9 8 8 7 5 6 6 6 6 7 8 8 9 10 11 11 11 16 22 24 25 27 29 32 33 34 35 36 38 38 39 40 41 41 41 41 40 40 41 42 42 41 41 40 40 40 39 38 37 36 34 31 29 27
3 4 7 3 1 5 7 8 12 15 12 9 8 9 8 7 4 3 6 6 5 5 6 6 8 13 8 2 5 3 7 9 9 7 5 4 5 6 6 7 8 7 8 9 10 10 10 10 9 12 17 20 22 25 28 30 32 33 34 36 37 38 40 42 42 42 42 40 40 40 41 41 41 41 40 40 40 39 38 37 36 34 33 31 29 27
4 2 5 6 6 8 10 8 8 11 10 5 5 8 8 8 8 8 10 7 5 4 5 6 9 15 11 2 7 6 2 2 3 7 7 7 7 7 7 8 8 8 9 9 10 10 10 10 10 12 16 19 22 24 26 29 31 32 34 34 35 36 39 41 42 42 40 39 39 39 38 39 39 40 40 40 40 39 38 37 35 34 32 30 28 26
2 2 4 8 6 5 7 4 2 2 2 3 4 6 7 7 8 9 7 5 5 5 6 8 10 12 12 6 5 8 6 6 7 3 6 7 6 7 8 8 8 9 9 9 9 9 9 9 9 10 12 14 18 23 27 29 31 32 33 34 35 36 37 37 38 40 40 39 39 38 38 38 39 39 40 40 39 38 38 37 35 33 32 30 27 26
5 2 4 7 6 5 6 6 4 3 2 2 5 6 7 7 7 7 5 4 6 7 10 12 10 9 10 5 5 10 10 10 11 6 4 2 4 6 7 8 9 9 9 9 8 8 8 9 9 10 10 11 16 22 26 29 31 33 34 36 37 36 35 35 36 38 40 40 39 39 39 39 39 40 41 40 39 38 38 37 35 33 31 29 27 25
2 3 3 5 7 8 7 8 7 4 2 2 4 6 7 7 8 7 6 6 8 10 12 13 10 10 12 13 12 14 13 11 12 11 7 6 7 7 7 8 9 9 9 9 9 8 9 9 10 11 10 11 16 21 24 27 30 31 32 35 37 36 35 36 37 37 37 38 38 39 39 40 40 41 41 40 39 39 38 37 36 34 32 29 28 26
2 0 5 8 9 8 8 9 9 9 8 7 6 8 8 8 9 7 6 7 9 10 12 12 12 14 15 18 22 21 18 16 15 15 13 10 9 8 7 9 9 9 9 9 9 9 9 9 10 11 11 11 15 21 23 25 27 29 31 34 36 36 37 38 38 37 37 37 37 38 39 40 41 40 40 39 38 38 38 37 36 34 32 29 28 26
1 4 12 16 16 15 15 16 16 15 16 15 14 14 13 10 10 9 10 12 12 12 13 12 14 18 18 18 22 23 20 17 14 14 15 15 13 10 8 8 9 9 8 8 9 10 11 11 10 11 11 11 14 19 22 25 28 31 32 34 36 37 38 38 38 38 37 37 36 36 38 38 37 37 37 36 37 37 37 36 36 34 32 29 27 26
4 7 12 16 18 19 18 19 20 19 19 19 17 18 18 17 14 13 16 19 17 15 15 14 18 23 20 18 21 22 20 17 17 18 20 20 17 15 13 10 8 9 9 10 10 10 10 11 10 11 12 12 13 17 21 25 27 30 31 32 34 36 37 38 38 38 36 36 36 35 34 34 34 34 35 35 36 37 36 36 35 33 31 29 27 25
5 6 11 14 15 16 18 20 22 23 22 22 21 21 21 21 21 20 21 21 20 19 19 21 25 25 20 20 23 22 20 18 19 22 23 22 19 19 20 14 8 9 10 11 11 11 11 11 11 12 13 12 12 15 19 23 26 29 30 30 33 34 36 37 37 36 35 34 33 32 31 32 33 33 34 35 36 37 36 36 35 33 31 28 26 25
8 8 12 13 11 14 20 22 23 24 23 24 25 23 21 23 26 27 23 18 18 21 23 24 23 20 19 22 22 20 19 19 21 25 25 23 20 19 20 15 9 9 10 11 12 11 11 11 12 12 12 13 14 16 19 23 25 28 28 29 32 33 35 36 35 34 33 32 31 31 32 34 34 34 35 35 36 36 36 36 35 33 30 28 26 24
9 8 8 9 8 12 18 23 25 25 24 25 24 23 24 27 27 23 19 18 20 22 23 23 18 15 18 18 16 17 20 21 24 26 24 20 18 19 19 15 10 10 12 11 11 10 11 12 12 13 14 14 14 17 21 23 24 25 27 30 32 32 33 34 33 33 32 32 32 33 35 36 36 36 36 36 37 37 37 36 35 33 30 28 26 23
8 8 7 8 8 10 15 20 22 19 17 16 17 23 30 32 27 21 19 23 25 21 18 17 16 18 19 16 15 18 22 22 24 23 20 18 18 19 17 12 9 10 11 11 10 10 10 11 10 12 13 13 15 21 27 28 27 28 30 31 31 32 34 34 33 33 32 32 34 35 37 37 38 38 37 37 37 37 37 36 34 32 30 27 25 23
8 10 8 7 7 9 13 15 14 12 11 9 14 24 33 32 28 25 25 28 30 24 19 18 20 21 19 16 18 21 22 22 24 21 14 12 14 16 14 11 9 10 11 11 10 9 9 9 9 10 11 15 21 27 29 30 29 28 29 30 31 33 34 33 32 32 32 32 34 36 36 37 37 37 36 36 36 36 35 34 32 30 28 26 24 22
9 10 9 7 6 8 9 10 10 11 10 10 15 22 27 28 29 30 30 31 30 27 25 25 24 22 20 20 21 22 24 26 26 20 12 11 13 14 14 13 12 11 11 11 10 10 10 9 9 9 10 15 21 23 23 26 27 25 27 31 33 34 34 33 31 31 31 32 33 34 35 36 35 35 35 35 36 35 34 32 30 28 26 24 23 22
13 10 7 6 7 6 6 9 11 10 5 5 11 15 17 19 23 25 26 28 28 27 26 24 23 21 22 23 23 23 25 25 21 16 12 14 16 15 14 14 12 11 12 12 11 12 11 10 10 10 11 13 16 19 22 26 28 27 28 31 33 32 32 31 30 30 31 32 33 35 37 37 37 37 37 38 37 35 34 32 30 28 27 25 23 21
17 13 8 7 7 8 9 11 13 14 9 5 8 11 15 17 18 18 20 22 22 22 22 21 22 23 24 26 25 23 21 18 14 12 14 18 20 18 16 13 11 12 13 13 12 12 12 11 10 11 12 13 17 21 23 26 28 27 27 27 28 29 29 29 29 30 32 34 36 38 40 42 42 42 42 42 41 39 37 34 32 30 28 26 24 22
19 17 13 10 8 10 14 13 10 13 13 10 12 15 18 21 22 19 19 17 12 13 18 21 23 25 26 26 24 19 15 12 11 11 15 20 20 17 14 11 10 12 13 12 12 11 11 10 8 10 14 15 17 20 23 26 28 27 25 24 26 27 27 27 29 32 34 36 39 41 43 45 46 46 46 45 44 42 39 36 34 32 30 28 26 24
22 18 16 13 9 11 15 12 9 11 9 8 13 17 18 19 17 13 15 13 8 12 18 21 23 24 22 21 19 14 10 10 10 10 14 18 17 12 11 10 9 10 10 10 11 11 10 8 8 11 13 14 14 18 22 26 28 26 22 23 26 26 25 27 31 35 37 38 40 42 44 46 48 48 47 45 44 43 40 37 34 32 30 28 26 24
20 15 14 15 12 13 15 12 8 9 5 7 11 13 15 16 12 10 14 10 7 15 20 20 21 21 18 16 14 10 9 10 11 11 13 14 12 9 8 9 9 9 9 10 12 13 10 11 12 10 11 13 15 20 23 26 26 23 20 23 24 24 26 30 33 35 37 38 40 42 43 45 46 47 46 45 44 42 39 37 34 32 30 27 24 22
11 10 12 15 14 14 16 12 8 7 5 7 11 12 11 10 8 10 14 8 3 5 10 10 12 13 11 11 9 6 7 9 10 10 10 9 9 9 8 7 6 7 6 6 8 7 7 10 9 8 10 14 17 21 25 27 23 19 20 22 22 25 29 32 33 34 36 37 39 40 41 42 44 45 44 44 44 41 38 36 35 33 30 28 25 22
5 5 6 10 12 13 14 12 11 8 2 5 8 9 6 4 4 7 8 9 11 11 12 12 11 12 13 12 10 9 10 12 12 12 12 12 11 11 11 11 10 9 8 9 9 5 5 5 4 5 8 14 19 23 27 27 22 19 20 21 22 28 30 31 33 35 37 38 39 39 40 41 42 43 42 42 42 41 37 34 33 32 30 27 25 23
5 6 6 5 7 8 9 9 8 5 5 14 13 6 2 3 5 8 9 9 9 11 12 12 11 12 12 12 12 12 13 14 14 14 14 13 12 11 10 10 10 9 8 8 8 6 1 2 4 6 10 15 20 24 28 26 21 18 19 20 24 29 31 33 36 37 37 38 38 38 39 40 40 40 40 40 41 40 37 34 32 31 29 28 26 23
5 4 4 5 4 4 4 4 2 2 4 9 8 3 5 9 9 8 7 8 8 9 9 8 9 10 10 9 11 12 13 13 14 15 14 13 12 11 10 9 8 9 8 5 4 4 4 5 5 5 9 15 19 23 27 27 21 17 18 21 25 30 33 34 37 37 37 38 38 37 38 39 39 39 39 39 40 39 37 34 32 31 28 27 26 23
5 3 3 5 5 3 5 8 9 7 6 6 4 4 9 14 12 6 5 7 7 7 7 6 8 9 9 8 9 11 12 13 15 15 14 13 11 10 9 9 8 8 7 6 5 4 6 7 5 4 7 13 18 21 25 26 23 18 18 21 27 32 35 36 37 37 37 37 37 38 38 38 38 38 38 39 40 39 37 35 33 31 28 26 25 23
7 7 5 5 6 7 7 10 11 11 13 16 16 14 13 12 8 4 6 7 7 7 7 6 7 9 9 7 8 10 12 14 15 15 14 13 12 11 9 8 8 7 6 6 5 4 6 6 6 6 7 11 17 21 24 26 25 21 18 22 28 33 35 38 37 35 35 36 36 38 39 38 36 35 35 37 38 38 38 37 34 32 29 26 24 21
6 8 8 6 8 11 9 10 11 14 18 21 21 18 13 7 4 5 7 7 7 8 9 8 8 10 9 8 9 10 12 13 13 14 13 12 11 12 11 9 8 6 6 7 7 7 7 6 6 8 8 10 17 22 24 26 27 23 19 23 30 33 35 37 36 34 35 35 36 37 39 39 37 34 35 36 36 36 36 36 34 33 31 28 24 20
7 10 10 9 10 11 12 15 16 15 15 14 13 10 7 7 9 11 10 9 9 10 10 10 10 10 10 10 10 10 12 13 12 11 11 10 10 10 11 11 11 9 7 7 8 9 8 7 8 10 9 10 16 22 24 26 27 24 22 26 32 35 35 35 34 34 34 35 36 37 37 38 38 36 36 36 36 37 37 34 32 31 31 29 27 24
9 11 9 9 12 12 12 12 12 12 13 12 9 7 8 11 14 14 12 12 13 13 13 13 11 10 10 11 11 10 12 13 12 11 11 12 11 11 12 13 13 11 9 8 9 11 10 9 10 10 10 13 17 21 25 27 27 26 26 30 35 38 37 34 33 33 33 34 35 34 35 35 35 36 38 37 35 34 34 32 31 30 27 25 25 25
8 10 10 8 9 10 10 10 11 12 13 14 12 11 12 12 15 16 16 15 14 13 13 13 13 12 11 11 11 12 12 12 12 12 12 12 12 12 13 13 13 11 10 9 9 11 11 12 12 11 11 15 18 21 25 27 27 28 30 33 38 41 39 35 32 30 31 33 33 33 34 34 32 35 40 39 35 32 28 24 25 26 26 24 21 19
7 9 9 9 10 12 13 13 11 8 9 12 14 14 13 11 14 16 16 15 14 13 13 13 14 15 14 12 11 11 12 13 14 14 14 14 13 13 13 13 13 12 12 10 9 9 9 11 12 11 13 16 19 22 25 26 28 30 33 36 41 43 41 38 33 29 30 32 32 34 36 35 33 36 39 39 39 37 32 25 20 19 21 22 21 17
Wind_Direction
166 185 200 224 233 225 214 216 223 230 239 252 263 270 268 270 272 270 279 236 183 191 222 224 234 246 256 257 249 250 250 255 255 248 245 246 249 250 251 247 232 227 216 174 174 181 187 192 189 184 182 180 178 177 178 178 180 180 179 179 179 179 180 180 179 178 177 176 176 180 182 183 184 185 183 182 183 184 192 202 198 190 197 207 211 215
181 206 218 229 237 240 235 237 240 242 247 255 260 270 276 266 267 274 279 248 183 198 236 241 252 257 260 263 258 252 250 253 252 251 252 251 253 255 255 249 227 208 150 138 157 172 179 182 180 177 176 174 174 175 177 178 179 181 182 182 181 180 182 185 184 183 183 184 184 185 187 185 184 188 189 185 183 187 195 201 197 193 199 207 213 219
221 227 231 236 247 254 254 256 256 261 263 266 272 275 275 266 273 279 269 203 138 206 249 257 262 263 263 262 262 257 250 250 247 246 250 253 255 254 254 245 203 152 140 149 154 163 169 170 171 171 173 176 176 177 178 179 181 182 183 184 184 183 185 187 188 187 187 188 190 190 188 186 184 187 193 191 188 191 197 199 197 198 204 209 214 219
228 227 229 237 249 251 253 251 241 260 264 251 253 260 263 259 266 277 257 178 163 206 241 267 267 263 268 266 260 256 251 250 248 248 250 251 252 251 251 241 188 164 163 162 159 161 162 163 167 169 172 176 177 179 180 181 183 183 185 186 186 187 187 188 189 189 189 186 187 189 186 185 184 182 184 186 187 192 197 198 198 201 207 211 215 220
240 223 203 228 238 239 243 243 226 240 258 241 223 230 249 255 251 257 272 274 227 230 250 305 293 262 248 253 254 252 248 249 248 247 250 251 252 254 252 234 188 173 168 164 166 166 162 166 172 172 173 175 178 182 184 184 186 185 187 189 189 189 188 188 188 187 186 180 176 175 171 172 173 172 174 176 181 189 194 197 199 202 207 210 215 220
248 227 202 224 223 221 228 237 214 204 258 260 216 221 242 254 258 264 292 327 320 279 251 32 312 273 213 227 255 260 235 238 237 233 241 248 253 256 251 226 188 175 169 171 172 169 168 172 174 175 176 179 183 187 188 188 188 188 189 190 190 189 188 188 187 185 184 180 177 173 168 167 168 170 178 184 186 190 193 197 200 202 207 210 212 217
243 207 204 220 221 224 231 248 221 198 257 271 227 233 253 261 272 276 299 325 257 260 237 111 333 286 258 223 252 264 231 229 228 227 234 241 248 252 250 225 190 176 174 178 175 169 169 171 174 180 183 185 188 190 189 189 190 190 190 189 190 189 188 188 186 185 185 182 181 181 179 179 180 180 187 193 195 196 196 197 199 201 206 209 211 217
189 169 173 204 217 229 231 246 228 198 238 263 226 263 277 276 281 275 283 251 234 283 273 158 149 277 280 237 218 231 230 235 232 229 233 233 241 250 255 234 185 178 183 178 173 172 173 177 182 186 188 189 190 189 188 189 190 191 191 190 190 190 189 188 187 187 188 186 186 187 186 188 189 189 192 194 195 198 196 192 194 199 203 208 211 217
137 175 192 197 203 224 224 232 210 186 217 239 211 206 142 151 240 220 250 251 264 314 277 190 152 257 280 268 205 216 218 231 234 231 234 233 236 244 253 244 190 181 189 176 172 176 176 183 187 187 188 189 190 189 189 191 191 191 191 190 190 190 190 189 189 189 191 192 192 191 191 192 193 194 193 190 186 187 188 187 190 195 200 205 209 214
168 185 207 187 190 220 213 199 194 193 212 215 201 178 106 189 233 205 235 249 298 277 246 198 161 230 276 274 194 200 210 223 233 235 235 235 236 234 238 242 207 178 184 175 173 178 179 184 185 184 184 186 189 191 191 191 190 191 190 190 190 191 191 190 191 192 193 195 195 195 195 193 191 189 187 184 180 181 184 185 188 192 197 202 206 211
229 132 108 190 194 203 152 122 196 206 184 142 144 281 311 257 239 229 241 184 283 266 237 197 189 204 269 284 155 185 202 204 219 231 237 239 243 237 227 229 203 167 169 171 174 176 174 176 176 176 179 184 189 190 190 190 190 190 190 190 191 192 192 192 193 195 195 196 198 198 197 194 189 185 181 179 179 182 185 187 190 193 196 200 205 211
240 182 190 233 198 141 112 136 214 182 157 121 126 152 316 288 300 359 291 120 240 264 223 189 197 200 235 262 173 211 198 194 208 213 228 234 238 242 233 216 186 161 162 164 169 167 159 165 170 173 178 182 184 186 188 190 190 191 191 191 192 192 194 195 195 196 197 197 200 200 198 195 191 186 184 182 183 185 188 190 191 192 193 195 200 205
246 228 209 239 305 165 152 181 263 349 237 153 141 146 191 281 286 294 249 158 230 256 239 208 203 207 234 241 234 250 228 208 209 203 216 223 229 242 230 197 168 152 159 162 164 165 163 170 174 175 179 180 182 186 188 190 190 192 193 192 193 194 196 196 196 197 197 198 200 200 198 197 193 191 190 188 188 189 191 190 190 190 190 191 195 200
263 257 196 175 288 193 172 181 206 257 198 177 165 157 171 216 245 243 241 238 243 255 260 229 196 219 259 231 215 233 236 224 210 207 213 208 227 241 206 167 158 154 163 164 165 170 173 179 180 180 182 181 185 187 188 189 191 192 193 194 195 197 197 197 198 198 198 199 200 199 199 197 196 195 194 193 192 192 192 192 192 193 194 195 198 202
234 287 185 171 212 182 183 207 210 182 172 194 183 166 186 193 210 230 232 243 256 277 274 213 169 224 256 220 208 215 229 227 210 210 209 205 230 227 154 154 162 164 170 166 169 178 181 182 181 182 183 185 188 188 188 190 191 193 195 196 197 198 198 197 198 199 199 200 199 199 199 198 198 197 196 196 196 196 195 194 194 194 196 198 199 201
221 265 197 175 178 165 185 216 210 150 149 220 172 168 217 197 190 235 248 244 264 309 277 228 202 241 257 267 247 229 239 230 213 213 199 211 232 178 141 174 176 174 178 169 175 180 182 183 181 185 187 189 190 189 189 191 192 194 197 198 200 199 198 198 198 200 201 200 198 198 199 198 198 197 196 196 196 196 196 196 196 195 196 198 196 196
225 265 182 168 218 183 192 215 198 180 206 204 162 195 221 175 169 219 259 266 281 284 273 264 256 271 295 282 249 231 237 224 215 219 192 209 227 186 174 198 185 188 185 176 183 181 180 183 184 190 190 190 191 191 192 193 194 196 197 199 200 200 200 199 199 200 201 200 199 198 199 198 198 197 197 196 194 194 195 196 197 196 195 195 195 196
224 264 206 177 215 228 209 271 238 226 172 126 185 214 193 44 135 191 248 279 262 254 267 277 273 280 285 278 270 226 231 218 211 211 191 210 222 198 206 213 195 192 179 174 184 182 186 188 186 192 193 193 194 193 195 196 196 198 199 199 199 199 200 201 200 200 200 200 199 198 198 198 199 198 197 197 195 194 193 193 194 195 195 196 197 199
217 248 258 176 184 238 64 319 259 262 157 138 221 237 130 177 222 177 188 218 240 249 262 279 281 275 255 258 301 269 218 210 207 198 200 223 226 210 224 224 195 171 163 173 184 186 193 194 190 192 193 194 195 195 197 198 199 200 201 201 201 201 202 202 200 199 200 201 200 199 199 199 199 198 197 196 195 194 193 193 193 195 197 198 199 202
211 225 255 13 21 53 70 236 209 215 218 156 330 325 52 184 187 176 188 198 223 238 257 275 279 276 258 234 241 234 210 198 196 194 214 233 233 225 225 223 188 164 175 189 191 197 201 200 199 194 191 191 192 194 196 196 199 201 202 202 201 201 202 202 201 200 200 201 201 200 199 199 198 198 197 195 195 194 194 195 195 196 197 199 200 203
208 219 236 329 354 238 194 215 190 189 203 187 219 265 241 204 168 217 236 217 215 224 241 247 254 270 268 192 219 227 185 179 181 190 220 229 232 235 225 224 211 186 195 199 194 205 206 205 206 198 194 191 189 191 193 195 198 200 200 201 200 199 199 200 201 200 200 200 200 200 199 198 198 196 195 195 195 195 195 195 196 197 198 198 200 203
202 215 223 220 279 232 226 219 205 205 206 193 197 208 208 204 195 236 246 231 218 222 231 226 241 260 258 74 24 35 142 173 165 147 186 209 224 238 223 218 218 203 204 204 203 208 203 200 200 193 191 187 186 189 191 194 197 198 199 200 200 200 199 199 199 199 200 199 199 201 200 198 196 195 194 193 193 194 194 194 195 196 196 197 200 204
212 196 233 234 230 239 243 234 223 228 230 232 221 212 214 207 197 217 232 231 228 224 234 241 246 253 255 326 351 348 64 170 145 131 163 190 204 222 221 218 219 217 215 208 205 205 198 194 190 186 186 185 187 190 191 194 196 197 199 199 200 202 203 201 199 198 198 198 199 200 199 197 195 194 193 191 191 192 192 192 193 194 195 196 199 204
269 142 236 256 267 289 283 280 345 326 269 270 260 229 219 218 218 228 234 246 246 218 226 245 245 256 271 275 259 265 264 267 277 233 174 190 208 215 224 228 223 224 226 218 212 206 197 190 183 183 186 185 188 190 192 195 196 196 198 198 200 204 206 204 200 197 196 196 197 197 196 196 195 193 192 191 190 190 189 190 190 191 194 196 198 203
316 293 252 261 267 286 290 275 284 337 4 256 253 245 238 241 249 259 273 272 256 238 241 252 253 260 280 277 228 247 253 253 267 257 173 203 274 249 236 235 229 227 229 228 222 208 190 182 183 190 191 191 192 194 194 195 196 197 197 198 200 202 204 204 202 199 197 195 195 194 194 195 194 193 193 191 189 188 187 187 187 189 192 195 198 202
314 320 307 280 257 254 259 255 257 283 301 261 262 263 260 258 252 256 266 258 254 250 246 254 265 269 281 291 283 275 275 274 278 284 287 303 304 282 249 234 233 231 229 226 218 202 192 190 195 196 195 198 197 196 197 197 197 197 197 198 199 199 199 201 202 201 199 196 194 193 194 194 194 194 193 190 188 186 184 184 185 187 191 195 198 201
100 276 280 273 267 264 262 269 286 295 281 273 273 261 256 260 255 251 255 253 257 263 254 253 268 274 278 282 281 280 281 282 283 291 298 299 296 287 254 231 233 231 225 221 209 199 200 203 203 201 200 204 203 199 199 199 197 196 196 198 198 198 197 198 199 200 200 198 196 194 194 194 194 194 192 189 186 182 181 181 183 186 189 194 197 200
161 236 254 257 258 262 265 272 283 287 276 271 274 275 274 271 256 247 250 251 255 262 260 256 264 268 265 263 271 276 278 280 284 289 294 291 289 289 262 234 236 241 238 233 220 206 205 208 205 204 207 205 200 199 200 200 200 199 198 198 196 196 196 195 196 198 198 197 197 196 196 195 194 192 190 187 183 179 178 179 181 185 188 191 196 199
226 237 239 244 248 251 256 263 266 270 270 266 265 268 272 272 263 255 252 249 247 251 257 256 253 256 259 259 264 270 273 281 289 288 288 287 289 288 273 247 233 242 243 241 240 227 218 218 208 205 212 204 195 197 199 201 201 200 200 198 195 195 195 194 194 195 196 196 197 197 195 192 191 189 187 183 179 176 176 176 179 182 185 190 194 197
215 226 219 230 243 242 241 247 249 253 260 263 261 258 260 266 265 257 252 251 252 255 257 256 253 254 259 260 259 264 272 281 285 283 281 280 279 279 276 265 241 235 231 228 236 236 229 228 219 213 213 205 199 200 199 200 199 199 199 196 194 194 193 193 193 193 194 195 196 194 190 188 187 185 183 179 176 174 174 174 177 179 183 187 191 194
204 212 207 219 242 239 235 239 239 241 246 253 258 259 257 258 256 252 252 256 260 259 256 255 257 258 258 257 259 266 270 271 271 271 271 272 271 271 274 272 252 239 236 227 226 231 231 229 227 224 218 210 209 205 201 201 199 197 196 194 193 193 192 191 191 192 193 193 192 189 186 184 183 181 179 176 174 173 172 173 175 178 181 184 187 192
198 213 206 213 239 236 230 236 238 238 240 244 251 258 257 251 249 248 248 248 249 252 255 256 257 257 256 259 265 265 261 260 260 261 263 267 269 268 270 269 251 240 246 239 226 226 231 231 228 225 219 216 214 207 204 201 194 192 194 193 192 190 188 188 189 190 191 189 187 185 183 181 179 176 176 174 172 172 172 173 175 177 179 182 185 189
192 212 214 211 236 240 227 232 236 234 238 237 232 238 245 246 248 248 247 247 245 244 248 251 248 249 254 260 263 259 258 257 255 255 256 261 266 265 264 260 241 234 246 251 240 230 232 235 233 228 223 217 212 210 207 200 192 194 195 191 188 185 184 186 188 188 187 186 184 183 181 179 176 174 173 172 171 171 171 172 173 175 178 180 182 186
194 211 220 213 235 244 230 233 239 232 233 225 206 219 233 240 244 244 240 240 240 239 238 241 245 248 251 252 252 254 255 254 253 251 246 244 253 260 262 256 241 239 250 255 250 240 234 233 234 234 230 221 215 213 209 201 196 196 192 185 182 182 182 185 186 185 184 183 182 180 178 176 173 171 170 170 169 170 170 170 171 173 176 177 179 183
213 214 222 221 234 243 232 233 240 234 229 220 209 216 228 235 238 241 243 241 241 243 244 245 247 249 249 249 248 249 250 251 255 257 246 237 247 258 267 264 253 250 255 258 260 258 250 242 236 236 235 226 218 209 200 195 193 189 182 180 180 180 182 183 182 182 181 179 178 177 174 172 170 168 167 167 168 168 168 168 169 171 173 176 179 182
223 221 219 222 229 238 231 221 234 253 255 203 209 216 222 233 237 242 250 248 242 244 248 250 252 251 250 250 247 247 250 253 259 263 258 254 253 252 256 256 251 252 257 259 262 260 253 247 235 231 232 219 204 193 188 189 188 180 176 178 179 178 179 178 178 179 178 176 175 174 173 171 169 167 167 167 167 167 167 168 169 171 173 174 177 179
222 225 226 226 217 221 237 233 240 262 264 210 199 204 207 222 227 232 248 249 237 237 244 248 251 250 249 250 248 249 254 260 268 270 260 257 255 251 249 243 237 248 259 263 262 256 253 253 241 227 215 193 184 187 187 185 181 174 170 172 173 174 174 175 177 178 177 176 176 175 175 174 170 168 169 170 170 169 170 170 171 172 173 173 174 176
220 223 223 228 216 216 239 246 241 251 248 223 215 212 210 225 231 231 249 254 230 224 237 240 242 245 247 251 253 254 259 261 260 258 255 255 255 254 254 246 231 235 247 253 255 254 251 245 221 198 189 178 181 190 187 181 177 170 165 167 170 171 173 177 180 180 178 179 178 177 177 176 173 171 172 173 173 171 170 171 171 172 174 174 174 176
223 223 222 231 229 218 233 240 234 244 244 209 215 219 217 229 237 241 260 263 219 215 235 239 241 244 246 250 253 251 250 251 249 249 253 256 255 252 249 244 235 236 241 238 240 248 240 209 175 167 171 172 182 188 183 179 175 167 164 168 170 172 178 183 185 183 181 181 179 177 178 177 176 175 174 174 173 172 170 170 170 171 173 173 172 171
222 223 224 230 229 223 232 239 236 246 238 176 196 213 217 223 227 238 258 259 197 209 230 236 242 248 248 248 249 239 234 242 245 245 247 251 256 255 242 232 226 230 235 235 239 239 212 173 159 159 169 180 185 184 181 177 171 167 169 170 172 179 188 190 188 184 181 180 178 178 178 178 178 177 175 173 172 171 170 169 169 168 168 168 167 167
231 229 223 228 233 230 232 241 247 246 227 195 202 202 202 214 220 231 254 288 357 266 270 277 275 282 289 283 278 270 264 271 274 273 276 283 293 298 289 279 265 249 252 269 263 234 172 155 162 172 185 190 185 180 178 174 171 173 173 171 180 192 194 191 186 181 179 178 177 178 179 180 180 178 175 173 171 169 168 167 167 167 164 163 162 162
262 258 233 228 236 232 230 242 252 248 299 338 270 230 181 176 235 254 289 346 12 6 1 360 352 356 358 346 339 335 327 334 341 338 339 342 340 341 341 343 346 342 343 354 357 17 82 109 136 158 181 189 184 181 180 176 175 178 175 179 195 197 190 184 181 178 176 176 177 178 178 180 180 178 174 171 169 165 163 163 165 164 161 160 159 159
299 299 288 256 247 248 241 239 237 236 3 3 339 311 38 27 314 313 335 355 12 20 15 5 2 10 6 353 347 340 337 344 350 349 348 346 346 350 350 351 355 353 356 5 356 346 23 145 177 179 185 188 187 185 182 179 180 181 183 194 199 190 181 180 178 175 174 175 176 176 176 177 178 176 171 168 167 163 159 160 161 160 159 159 157 156
277 269 291 310 327 321 278 271 300 305 335 359 4 351 343 338 326 326 341 348 358 12 11 356 351 356 354 345 339 337 338 339 337 337 335 330 331 333 330 332 341 343 348 350 319 278 234 224 232 211 191 192 192 190 187 186 185 187 196 202 192 180 175 176 174 172 172 174 174 174 174 174 174 173 169 165 164 161 157 157 157 155 156 159 157 156
284 286 289 286 288 290 269 277 297 308 309 322 327 305 313 316 309 313 354 355 343 349 353 343 334 336 338 333 329 332 334 330 326 324 319 315 315 313 310 314 319 323 323 314 292 254 231 237 247 221 200 203 202 198 197 196 193 195 205 200 183 175 173 172 170 171 172 173 173 171 171 170 171 171 168 165 164 160 156 155 155 153 155 157 156 155
313 313 291 268 294 309 282 262 281 309 317 312 307 306 310 306 292 316 359 345 324 326 329 318 317 321 318 316 322 326 321 316 314 311 308 308 308 305 304 301 299 305 301 286 274 241 226 234 235 218 211 213 210 207 207 206 204 206 207 191 179 176 174 171 170 171 171 172 172 170 167 165 166 167 165 164 165 163 160 159 158 155 156 157 155 155
313 305 293 290 309 313 294 278 293 306 304 301 303 310 317 317 318 342 338 317 308 312 308 302 306 307 305 305 308 304 300 299 298 298 299 301 301 303 305 299 293 290 275 263 254 228 206 203 217 221 220 220 215 212 212 212 211 212 205 187 180 178 174 172 172 171 172 172 170 168 167 165 163 163 162 162 163 162 161 161 160 158 158 158 156 157
305 305 304 298 292 286 281 287 295 295 290 291 298 312 328 338 338 337 331 325 323 320 317 318 315 309 308 307 301 296 293 292 288 287 290 293 294 297 299 298 297 293 276 254 233 213 197 198 218 222 225 227 219 213 213 214 213 211 200 187 182 178 174 175 175 173 173 172 170 169 169 167 163 161 160 160 161 159 159 160 161 162 164 165 165 164
293 291 292 291 287 282 279 287 300 308 308 307 311 331 347 346 346 348 349 346 341 335 331 327 321 318 316 310 305 302 297 294 293 292 292 292 294 294 293 294 295 292 285 265 230 210 202 211 220 218 223 232 223 212 212 215 212 206 197 188 182 178 176 177 177 175 173 172 171 171 170 167 164 161 158 158 158 158 159 161 163 163 163 169 174 174
276 275 280 287 287 284 292 314 330 329 317 311 324 353 6 2 356 351 346 342 339 334 329 326 323 321 315 310 310 309 304 301 303 302 299 297 295 295 296 297 297 292 287 276 249 224 213 216 218 218 227 232 222 212 213 213 208 202 197 190 184 181 179 176 175 175 174 174 174 173 169 166 164 162 158 156 154 152 150 154 161 164 164 166 171 173
261 271 282 289 284 288 307 330 345 337 309 311 335 356 4 2 353 343 335 332 329 327 327 326 321 317 312 307 306 303 301 303 304 303 302 297 292 292 291 291 293 293 290 283 264 241 234 228 221 222 234 235 224 216 214 210 203 199 196 190 186 184 181 176 173 175 178 179 178 175 170 166 163 161 158 156 154 151 145 142 147 158 165 164 161 162